Karol Buksa

Scout - Lech
3 Dez 2028
Sonntag
Verarbeitung

Persönlichkeit

Anpassungsfähigkeit (10) Ehrgeiz (3) Kontroverse (4) Loyalität (12) Druck (19) Professionalität (10) Fairness (1) Temperament (3)

Profil

Trainerstil Demokratisch
Lizenz Nationale A
Entschlossenheit 10
Menschenführung 5
Motivation 5
Disziplin 13
Arbeitszufriedenheit
100%
Ermüdung
0%
Rolle Scout
Gehalt 36.9K p/W
Vertrag 14.03.2030

Leistung

Verhalten Gut
Trainingseffektivität
50%
Spielerentwicklung
40%
Verletzungsprävention
60%
Taktische Umsetzung
30%

Letzte Ereignisse

Nahm an einer Scouting-Besprechung teil 7T her
Nahm an einer Scouting-Besprechung teil 7T her
Nahm an einer Scouting-Besprechung teil 14T her
Nahm an einer Scouting-Besprechung teil 14T her
Nahm an einer Scouting-Besprechung teil 21T her
Nahm an einer Scouting-Besprechung teil 21T her
Nahm an einer Scouting-Besprechung teil 28T her
Nahm an einer Scouting-Besprechung teil 28T her

Aktuell beobachtet

57
Spieler Verein Status Fähigkeit Vertrauen Beobachtet Zuletzt beobachtet Letzte Stimme
Roman Yakuba Zaglebie Aktiv 120 / 110 48% 1 07.08.2028 -
Diego Coppola Paris FC Aktiv 166 / 152 40% 2 02.06.2028 -
António Silva Bournemouth Aktiv 132 / 161 40% 1 02.06.2028 -
Zito Luvumbo Cagliari Aktiv 126 / 131 40% 1 31.05.2028 -
Archie Gray Southampton Aktiv 143 / 160 40% 3 27.05.2028 -
Max Johnston Derby County Aktiv 132 / 149 40% 2 27.05.2028 -
Patrick Dorgu Bristol City Aktiv 164 / 149 40% 1 26.05.2028 -
Ayden Heaven Portsmouth Aktiv 148 / 155 40% 1 26.05.2028 -
Adam Wharton Crystal Palace Aktiv 154 / 170 40% 1 24.05.2028 -
Calvin Ramsay Bristol Rovers Aktiv 136 / 116 40% 1 24.05.2028 -
Jacques Ekomié Wrexham Aktiv 142 / 123 40% 1 22.05.2028 -
Juanlu Bournemouth Aktiv 146 / 162 40% 1 21.05.2028 -
Reuell Walters Luton Town Aktiv 109 / 128 40% 1 21.05.2028 -
Brooke Norton-Cuffy Hull City Aktiv 143 / 149 40% 2 17.05.2028 -
Lewis Hall Newcastle United Aktiv 171 / 166 40% 1 17.05.2028 -
Bosun Lawal Stoke City Aktiv 143 / 123 40% 3 14.05.2028 -
Trey Nyoni Rotherham United Aktiv 131 / 135 40% 2 14.05.2028 -
Tim Iroegbunam Peterborough United Aktiv 155 / 150 40% 2 09.05.2028 -
Josh Acheampong Everton Aktiv 132 / 157 40% 1 09.05.2028 -
Sydie Peck Swindon Town Aktiv 120 / 145 40% 1 08.05.2028 -
Habib Diarra Sunderland Aktiv 128 / 145 40% 3 07.05.2028 -
Harvey Vale Queens Park Rangers Aktiv 111 / 133 40% 1 07.05.2028 -
Marco Palestra Everton Aktiv 152 / 136 40% 1 05.05.2028 -
Joshua Quarshie Exeter City Aktiv 112 / 122 40% 1 15.04.2028 -
Yehor Yarmoliuk Brentford Aktiv 161 / 158 40% 1 12.04.2028 -
Agustín Giay Palmeiras Aktiv 135 / 149 40% 2 03.04.2028 -
François Gaillard Monaco Aktiv 162 / 145 40% 1 29.03.2028 -
Giovanni Leoni Lincoln City Aktiv 140 / 155 40% 1 28.03.2028 -
Arsène Kouassi AS Nancy Aktiv 145 / 147 40% 1 27.03.2028 -
Honest Ahanor Atalanta Aktiv 149 / 125 40% 1 26.03.2028 -
Andrey Santos Bolton Wanderers Aktiv 168 / 158 40% 1 23.03.2028 -
Ondřej Lingr Korona Aktiv 139 / 138 48% 1 03.01.2028 Beobachten
Baralhas Vitória Aktiv 128 / 114 40% 1 31.12.2027 -
Santiago Ramos Mingo Bahia Aktiv 141 / 145 40% 1 31.12.2027 -
Vladislav Blănuţă Lechia Aktiv 125 / 124 48% 1 01.01.2027 -
Callum O'Hare Sheffield United Verloren 149 / 126 40% 1 31.12.2026 -
Joe Gelhardt Hull City Aktiv 150 / 144 40% 1 29.12.2026 -
Welington Southampton Aktiv 149 / 139 40% 1 28.12.2026 -
Oswin Appollis Orlando Pirates Aktiv 110 / 132 40% 1 28.12.2026 -
Mohamed-Ali Cho Hull City Aktiv 140 / 120 40% 1 27.12.2026 -
Jack McGlynn Stoke City Aktiv 118 / 143 40% 1 26.12.2026 -
Mohammad Mehdi Mohebi Persepolis Aktiv 139 / 104 40% 2 13.12.2026 -
Oston O'runov Persepolis Aktiv 145 / 137 40% 2 13.12.2026 -
Ola Brynhildsen Rapid Wien Aktiv 151 / 139 40% 1 11.12.2026 -
Santiago Pierotti Lecce Aktiv 137 / 135 40% 1 10.12.2026 -
Manu Morlanes Mallorca Aktiv 116 / 137 40% 1 10.12.2026 -
Ronaldo Vásquez Sumgayit Aktiv 107 / 100 40% 1 06.12.2026 -
Armstrong Oko-Flex Levski Aktiv 113 / 117 40% 3 01.12.2026 -
Peter Federico Gornik Zabrze Aktiv 122 / 134 40% 1 01.12.2026 -
Sergey Pinyaev Lokomotiv Moscow Aktiv 113 / 134 40% 1 25.11.2026 -
Marco Pašalić Orlando City Aktiv 141 / 136 40% 1 24.11.2026 -
Sota Kitano Red Bull Salzburg Aktiv 120 / 133 40% 1 22.11.2026 -
Jesus Ferreira Seattle Sounders Aktiv 140 / 136 40% 1 20.11.2026 -
Marcelo Allende Mamelodi Sundowns Aktiv 113 / 121 40% 1 14.11.2026 -
Esequiel Barco Spartak Moscow Aktiv 143 / 143 40% 1 03.11.2026 -
Giovani Lo Celso Betis Aktiv 149 / 164 40% 1 01.08.2026 -
Jordan Beyer Burnley Aktiv 127 / 113 40% 1 01.08.2026 -